Location: North Evanston
(42.0634°N, 87.6976°W)
Time: 21:40:01
(UTC+00:00)

Transit 2A - Pass Details

Date: 10 May 2026
Orbit: 595 x 948 km, 66.7° (Epoch: 9 June)

Event Time Altitude Azimuth Distance (km) Brightness Sun altitude
Rises 21:36:11 0° 182° (S) 3,600 9.6 36.0°
Reaches altitude 10° 21:38:59 10° 173° (S) 2,648 8.9 35.5°
Maximum altitude 21:44:29 34° 111° (ESE) 1,458 7.3 34.4°
Drops below altitude 10° 21:49:46 10° 48° (NE) 2,535 8.4 33.5°
Sets 21:52:22 0° 40° (NE) 3,427 9.0 33.0°
